Regional Weather Roundup
Issued by NWS

Home | Current Version | Previous Version | Text Only | Print | Product List | Glossary Off
Versions: 1 2 3 4 5 6 7 8 9 10 11 12 13 14 15 16 17 18 19 20 21 22 23 24 25 26 27 28 29 30 31 32 33 34 35 36 37 38 39 40 41 42 43 44 45 46 47 48 49 50

000
ASUS43 KIND 040909
RWRIN

WEATHER ROUNDUP FOR INDIANA
NATIONAL WEATHER SERVICE INDIANAPOLIS IN
500 AM EDT MON MAY 04 2015

NOTE: "FAIR" INDICATES FEW OR NO CLOUDS BELOW 12,000 FEET WITH NO
SIGNIFICANT WEATHER AND/OR OBSTRUCTIONS TO VISIBILITY.

* - STATION DOES NOT REPORT WEATHER SUCH AS PRECIPITATION OR FOG.

+ - STATION NOT QUALITY CONTROLLED BY THE NATIONAL WEATHER SERVICE.
    USE DATA WITH CAUTION...ESPECIALLY DEWPOINT AND RELATIVE
    HUMIDITY OBSERVATIONS.

INZ001>003-010>013-019-020-041000-
NORTHWEST INDIANA

CITY           SKY/WX    TMP DP  RH WIND       PRES   REMARKS
GARY /AIRPORT/ LGT RAIN  68  41  36 SW8G16    29.95R
KNOX *+        CLOUDY    64  23  20 SW16G24   29.96S
LA PORTE +     CLOUDY    65  46  50 S8        29.96F
MICHIGAN CITY+ CLOUDY    64  37  36 S10G16    29.95S
MONTICELLO +   PTCLDY    62  49  60 S10       30.00S
VALPARAISO     CLOUDY    66  44  45 SW15      29.96S

$$

LMZ046-743>745-041000-
SOUTHERN LAKE MICHIGAN

STATION/POSITION TIME  TEMP    WIND        PRES    WAVE
                       AIR SEA DIR/SP/G            HT
                 (UTC) (F)     (DEG/KT/KT) (MB)    (FT)
BURNS HARBOR     0900   66     200/ 16/ 21 1014.2R
MICHIGAN CITY    0900   66     170/ 16/ 20   N/A
5NW MICH CITY    0900   61 50  230/ 14/ 16   N/A     2

$$

INZ004-005-014>016-021>024-041000-
NORTH CENTRAL INDIANA

CITY           SKY/WX    TMP DP  RH WIND       PRES   REMARKS
GOSHEN         MOCLDY    64  47  53 S10       29.99S
LOGANSPORT +   PTCLDY    59  45  58 S10       30.02S
PERU/GRISSOM   MOCLDY    61  49  63 S10       30.01F
ROCHESTER +    MOCLDY    66  46  48 S10       30.00F
SOUTH BEND     CLOUDY    67  44  43 S13       29.96F
WARSAW +       MOCLDY    64  46  52 SW6       30.00F

$$

INZ006>009-017-018-025>027-041000-
NORTHEAST INDIANA

CITY           SKY/WX    TMP DP  RH WIND       PRES   REMARKS
ANGOLA *+      PTCLDY    63  52  67 S5        30.01F
AUBURN +       MOCLDY    63  46  55 S5        30.03S
FORT WAYNE     MOCLDY    61  49  64 S9        30.04S
HUNTINGTON +   MOCLDY    62  48  61 S5        30.03S

$$

INZ028-029-035-036-043>045-051>053-041000-
WEST CENTRAL INDIANA

CITY           SKY/WX    TMP DP  RH WIND       PRES   REMARKS
CRAWFORDSVL +  PTCLDY    58  43  57 S8        30.04F
GREENCASTLE +  CLEAR     63  43  48 S6        30.06S
LAFAYETTE      PTCLDY    61  47  59 SW5       30.01F
TERRE HAUTE    PTCLDY    60  49  66 S8        30.05S

$$

INZ030>032-037>040-046>048-054>057-064-065-041000-
CENTRAL INDIANA

CITY           SKY/WX    TMP DP  RH WIND       PRES   REMARKS
CP ATTERBURY + CLEAR     48  46  93 CALM      30.10R
FRANKFORT +    PTCLDY    59  49  70 S7        30.05S
INDIANAPOLIS   MOCLDY    58  47  66 S7        30.06R
-EAGLE CREEK   CLEAR     58  48  69 CALM      30.06R
MARION +       PTCLDY    59  47  65 S10       30.05S
MT COMFORT *+  CLEAR     57  41  54 S7        30.08R
SHELBYVILLE    CLEAR     59  49  69 S7        30.08R
ZIONSVILLE +   CLEAR     59  47  64 S7        30.07R

$$

INZ033-034-041-042-049-050-058-059-041000-
EAST CENTRAL INDIANA

CITY           SKY/WX    TMP DP  RH WIND       PRES   REMARKS
MUNCIE         PTCLDY    61  48  62 S7        30.07R

$$

INZ060-061-067>069-081>083-085>088-041000-
SOUTHWEST INDIANA

CITY           SKY/WX    TMP DP  RH WIND       PRES   REMARKS
EVANSVILLE     MOCLDY    60  52  74 CALM      30.10R
HUNTINGBURG *+ PTCLDY    61  48  63 S3        30.11R
WASHINGTON +   CLEAR     61  46  58 S9        30.07S

$$

INZ062-063-066-070>080-084-089>092-041000-
SOUTH CENTRAL AND SOUTHEAST INDIANA

CITY           SKY/WX    TMP DP  RH WIND       PRES   REMARKS
BEDFORD +      CLEAR     59  48  67 S5        30.10R
BLOOMINGTON    CLEAR     59  48  67 SW5       30.09R
MADISON *+     CLEAR     55  48  76 CALM      30.13R
NORTH VERNON + CLEAR     59  48  67 S5        30.10S
SEYMOUR +      CLEAR     55  48  76 S6        30.09S

$$




USA.gov is the U.S. government's official web portal to all federal, state and local government web resources and services.